Regional Weather Roundup
Issued by NWS

Home | Current Version | Previous Version | Graphics & Text | Print | Product List | Glossary On
Versions: 1 2 3 4 5 6 7 8 9 10 11 12 13 14 15 16 17 18 19 20 21 22 23 24 25 26 27 28 29 30 31 32 33 34 35 36 37 38 39 40 41 42 43 44 45 46 47 48 49 50
852
ASUS43 KFSD 230302
RWRSD

WEATHER ROUNDUP FOR SOUTH DAKOTA
NATIONAL WEATHER SERVICE SIOUX FALLS SD
1000 PM CDT FRI JUL 22 2016

NOTE: "FAIR" INDICATES FEW OR NO CLOUDS BELOW 12,000 FEET WITH NO
SIGNIFICANT WEATHER AND/OR OBSTRUCTIONS TO VISIBILITY.


SDZ001>005-009-010-012>017-230400-
NORTHWEST AND NORTH CENTRAL SOUTH DAKOTA

CITY           SKY/WX    TMP DP  RH WIND       PRES   REMARKS
BUFFALO          N/A     76  65  68 E21       29.82R
FAITH            N/A     74  61  63 E25G33    29.94R
MOBRIDGE       CLOUDY    71  64  78 E16       29.97F
$$

SDZ012>016-024>037-041>051-057-063-072>074-230400-
SOUTHWEST AND SOUTH CENTRAL SOUTH DAKOTA

CITY           SKY/WX    TMP DP  RH WIND       PRES   REMARKS
RAPID CTY ARPT CLEAR     77  59  53 S14       29.93R
PIERRE         CLOUDY    84  72  67 SE17      29.91R
CUSTER         CLEAR     71  51  49 S8        30.11S
ELLSWORTH AFB  CLEAR     80  60  50 S12       29.92R
PHILIP         MOCLDY    87  56  34 E9        29.90F
PINE RIDGE     CLOUDY    82  53  36 SE21G29   29.93F
WINNER         FAIR      87  76  69 SE12      29.93R HX  97
$$

SDZ004>011-016>023-039-040-230400-
NORTHEAST SOUTH DAKOTA

CITY           SKY/WX    TMP DP  RH WIND       PRES   REMARKS
ABERDEEN       LGT RAIN  78  70  76 NE12      29.98R
WATERTOWN      CLOUDY    77  69  76 NE6       29.98R
BROOKINGS      CLOUDY    80  73  79 SE10      29.96R
SISSETON         N/A     73  70  90 CALM      29.98R
$$

SDZ017-020-022-023-036>040-048>070-230400-
SOUTHEAST SOUTH DAKOTA

CITY           SKY/WX    TMP DP  RH WIND       PRES   REMARKS
SIOUX FALLS    MOCLDY    84  78  82 SE10      29.92S HX  95
HURON          CLOUDY    84  75  74 E8        29.90R
CHAMBERLAIN    MOCLDY    84  78  82 E5        29.93R HX  95
MITCHELL       CLOUDY    84  78  82 E7        29.91R HX  95
YANKTON        PTCLDY    84  77  79 E5        29.89S
$$

ABBREVIATIONS USED IN REMARKS
   TC - TEMPERATURE IN CELSIUS
  WCI - WIND CHILL INDEX
   HX - HEAT INDEX
  VSB - VISIBILITY





USA.gov is the U.S. government's official web portal to all federal, state and local government web resources and services.